Location: ????????
(55.3155°N, 39.2900°E)
Time: 18:03:24
(UTC+00:00)

ACS3 Solar Sail - Pass Details

Date: 19 November 2025
Orbit: 889 x 1003 km, 97.3° (Epoch: 06 December)

Event Time Altitude Azimuth Distance (km) Brightness Sun altitude
Rises 23:53:43 0° 17° (NNE) 3,571 5.3 -42.6°
Reaches altitude 10° 23:56:21 10° 26° (NNE) 2,642 4.5 -42.3°
Enters shadow 23:59:06 25° 46° (NE) 1,819 3.6 -41.9°
